Dothan, AL

11:20 PM CDT on June 25, 2017 (GMT -0500)
Dothan Regional

Weather History for KDHN - December, 2014

Change the Weather History Date:

Sunday, December 7, 2014

  Actual Average Record
Temperature  
Mean Temperature 55 °F 53 °F  
Max Temperature 64 °F 64 °F 81 °F (1951)
Min Temperature 46 °F 41 °F 26 °F (1954)
Degree Days  
Heating Degree Days 10 12  
Month to date heating degree days 20 82  
Since 1 July heating degree days 441 359  
Growing Degree Days 5 (Base 50)    
Moisture  
Dew Point 44 °F    
Average Humidity 69    
Maximum Humidity 86    
Minimum Humidity 48    
Precipitation  
Precipitation 0.00 in 0.18 in 2.03 in (1948)
Month to date precipitation 0.02 1.32  
Year to date precipitation 50.01 50.90  
Sea Level Pressure  
Sea Level Pressure 30.25 in    
Wind  
Wind Speed 10 mph (NE)    
Max Wind Speed 20 mph    
Max Gust Speed 26 mph    
Visibility 10 miles    
Events      
T = Trace of Precipitation, MM = Missing Value Source: NWS Daily Summary

Daily Weather History Graph

Daily Weather History Graph

Search for Another Location

Airport or City:

Trip Planner

Search our weather history database for the weather conditions in past years. The results will help you decide how hot, cold, wet, or windy it might be!

Date:

Astronomy

Dec. 07, 2014 Rise Set
Actual Time 6:27 AM CST 4:38 PM CST
Civil Twilight 6:01 AM CST 5:05 PM CST
Nautical Twilight 5:30 AM CST 5:35 PM CST
Astronomical Twilight 5:01 AM CST 6:05 PM CST
Moon 6:03 PM CST (12/7) 7:14 AM CST (12/7)
Length of Visible Light 11h 04m
Length of Day
10h 11m
Full, 98% of the Moon is Illuminated
Dec 7
Full
Dec 14
Last Quarter
Dec 21
New
Dec 28
First Quarter
Jan 4
Full

Hourly Weather History & Observations

Time (CST) Temp. Windchill Dew Point Humidity Pressure Visibility Wind Dir Wind Speed Gust Speed Precip Events Conditions
12:02 AM 53.6 °F - 48.2 °F 82% 30.23 in 10.0 mi North 8.1 mph - N/A   Scattered Clouds
12:53 AM 53.1 °F - 46.9 °F 80% 30.24 in 10.0 mi North 11.5 mph - N/A   Clear
1:53 AM 50.0 °F - 46.0 °F 86% 30.24 in 10.0 mi North 6.9 mph - N/A   Clear
2:53 AM 48.9 °F - 45.0 °F 86% 30.24 in 10.0 mi North 6.9 mph - N/A   Clear
3:53 AM 48.9 °F - 45.0 °F 86% 30.25 in 10.0 mi NNW 11.5 mph - N/A   Clear
4:53 AM 48.0 °F - 43.0 °F 83% 30.26 in 10.0 mi North 10.4 mph - N/A   Clear
5:53 AM 46.9 °F - 43.0 °F 86% 30.27 in 10.0 mi North 8.1 mph - N/A   Clear
6:53 AM 46.0 °F 41.4 °F 42.1 °F 86% 30.29 in 10.0 mi North 9.2 mph - N/A   Clear
7:53 AM 50.0 °F - 43.0 °F 77% 30.29 in 10.0 mi North 15.0 mph 21.9 mph N/A   Clear
8:53 AM 53.1 °F - 43.0 °F 69% 30.30 in 10.0 mi NNE 15.0 mph - N/A   Clear
9:53 AM 57.0 °F - 43.0 °F 59% 30.29 in 10.0 mi NE 13.8 mph 19.6 mph N/A   Clear
10:53 AM 59.0 °F - 43.0 °F 55% 30.27 in 10.0 mi NE 15.0 mph - N/A   Clear
11:53 AM 62.1 °F - 44.1 °F 52% 30.24 in 10.0 mi NE 9.2 mph 20.7 mph N/A   Clear
12:53 PM 62.1 °F - 44.1 °F 52% 30.22 in 10.0 mi North 9.2 mph - N/A   Clear
1:53 PM 64.0 °F - 44.1 °F 48% 30.20 in 10.0 mi North 9.2 mph 18.4 mph N/A   Clear
2:53 PM 63.0 °F - 44.1 °F 50% 30.20 in 10.0 mi NNE 11.5 mph 18.4 mph N/A   Clear
3:53 PM 62.1 °F - 44.1 °F 52% 30.21 in 10.0 mi NE 8.1 mph - N/A   Clear
4:53 PM 59.0 °F - 45.0 °F 60% 30.22 in 10.0 mi NNE 5.8 mph - N/A   Overcast
5:53 PM 59.0 °F - 45.0 °F 60% 30.23 in 10.0 mi ENE 6.9 mph - N/A   Overcast
6:53 PM 57.0 °F - 45.0 °F 64% 30.24 in 10.0 mi ENE 15.0 mph 23.0 mph N/A   Overcast
7:35 PM 55.4 °F - 44.6 °F 67% 30.25 in 10.0 mi East 9.2 mph 18.4 mph N/A   Overcast
7:53 PM 55.9 °F - 45.0 °F 67% 30.25 in 10.0 mi East 13.8 mph - N/A   Overcast
8:11 PM 55.4 °F - 44.6 °F 67% 30.26 in 10.0 mi East 9.2 mph - N/A   Overcast
8:53 PM 55.0 °F - 45.0 °F 69% 30.25 in 10.0 mi East 6.9 mph - N/A   Overcast
9:53 PM 55.0 °F - 45.0 °F 69% 30.25 in 10.0 mi East 5.8 mph - N/A   Overcast
10:53 PM 54.0 °F - 45.0 °F 72% 30.25 in 10.0 mi East 6.9 mph - N/A   Overcast
11:53 PM 54.0 °F - 45.0 °F 72% 30.24 in 10.0 mi East 8.1 mph - N/A   Overcast